Location: Unspecified
(51.5147°N, 7.4673°E)
Time: 18:55:33
(UTC+01:00)

Explorer 7 - Pass Details

Date: 18 February 2026
Orbit: 430 x 541 km, 50.2° (Epoch: 12 March)

Event Time Altitude Azimuth Distance (km) Brightness Sun altitude
Rises 15:51:15 0° 225° (SW) 2,427 12.0 15.2°
Reaches altitude 10° 15:53:29 10° 214° (SW) 1,575 11.2 14.9°
Maximum altitude 15:56:38 30° 152° (SSE) 846 8.1 14.5°
Drops below altitude 10° 15:59:54 10° 90° (E) 1,636 8.8 14.2°
Sets 16:02:15 0° 79° (E) 2,539 9.7 13.9°
